Regional Weather Roundup
Issued by NWS

Home | Current Version | Previous Version | Text Only | Print | Product List | Glossary Off
Versions: 1 2 3 4 5 6 7 8 9 10 11 12 13 14 15 16 17 18 19 20 21 22 23 24 25 26 27 28 29 30 31 32 33 34 35 36 37 38 39 40 41 42 43 44 45 46 47 48 49 50

000
ASUS43 KDTX 190101
RWRMI
MICHIGAN HOURLY REGIONAL WEATHER ROUNDUP
NATIONAL WEATHER SERVICE DETROIT/PONTIAC MI
800 PM EST WED JAN 18 2017

NOTE: "FAIR" INDICATES FEW OR NO CLOUDS BELOW 12,000 FEET WITH NO
SIGNIFICANT WEATHER AND/OR OBSTRUCTION TO VISIBILITY.

MIZ047>049-052>055-059>063-066>070-074>076-081>083-190200-
SOUTHEAST LOWER MICHIGAN

CITY           SKY/WX    TMP DP  RH WIND       PRES   REMARKS
ADRIAN         CLOUDY    34  34 100 W9        30.09R WCI  27
ALMA           CLOUDY    35  33  94 SW16G22   30.02S FOG     WCI  25
ANN ARBOR      CLOUDY    35  34  96 SW14      30.06R FOG     WCI  26
BAD AXE        CLOUDY    35  35 100 SW13G18   29.98F WCI  27
CARO           CLOUDY    36  35  94 SW12      30.00R WCI  28
DETROIT        DRIZZLE   36  34  92 SW17      30.07R WCI  26
FLINT          CLOUDY    36  33  89 W10G21    30.03R WCI  28
GROSSE ILE     CLOUDY    36  34  93 W8        30.06S WCI  29
HILLSDALE      FOG       32  32 100 SW5       30.05F VSB 1   WCI  27
HOWELL         CLOUDY    35  33  92 SW9       30.04S FOG     WCI  27

CITY           SKY/WX    TMP DP  RH WIND       PRES   REMARKS
JACKSON        CLOUDY    34  32  92 SW10      30.05F FOG     WCI  26
LAMBERTVILLE   CLOUDY    37  34  90 W7        30.09R WCI  31
LANSING        CLOUDY    35  32  88 SW12      30.05R FOG     WCI  27
LAPEER         CLOUDY    37  35  93 W10G20    30.01R WCI  30
MASON          CLOUDY    34  34  98 SW8       30.05S FOG     WCI  27
MONROE         CLOUDY    36  35  98 W12G18    30.08R FOG     WCI  28
MT. CLEMENS    CLOUDY    39  37  90 SW8       30.03R WCI  34
PONTIAC        CLOUDY    36  33  89 W10       30.02R WCI  28
PORT HOPE        N/A     37  34  89 SW15G24   29.94F WCI  28
PORT HURON     CLOUDY    37  36  93 SW6       30.02S WCI  33
TRI CITIES     CLOUDY    35  34  96 SW16      30.01R FOG     WCI  25
MIDLAND        CLOUDY    36  33  89 SW9       30.00R WCI  29
TROY           CLOUDY    38  34  84 SW13      30.06R WCI  30
SAGINAW HB     CLOUDY    36  32  87 SW12      30.01R WCI  27
$$
MIZ043>046-050>051-056>058-064>065-071>073-077>080-190200-
SOUTHWEST LOWER MICHIGAN

CITY           SKY/WX    TMP DP  RH WIND       PRES   REMARKS
BATTLE CREEK   CLOUDY    34  33  96 SW13      30.06S FOG     WCI  25
BENTON HARBOR  CLOUDY    36  31  82 S9        30.09R WCI  29
BIG RAPIDS     CLOUDY    34  32  92 SW5       29.97S WCI  30
COLDWATER      CLOUDY    33  33 100 SW12      30.07F FOG     WCI  24
FREMONT        CLOUDY    34  33  98 SW13G20   30.01R WCI  25
HOLLAND        CLOUDY    35  32  88 SW16      30.07R WCI  25
GRAND RAPIDS   CLOUDY    34  31  88 SW14      30.04S WCI  25
IONIA          CLOUDY    33  33  99 SW14      30.02F FOG     WCI  23
KALAMAZOO      CLOUDY    34  31  88 SW14      30.08R FOG     WCI  25
LUDINGTON      CLOUDY    34  33  96 SW15G25   29.98R FOG     WCI  25
MARSHALL       CLOUDY    34  33  97 SW7       30.06S FOG     WCI  28
MOUNT PLEASANT CLOUDY    35  33  94 SW15      29.99S FOG     WCI  25
MUSKEGON       CLOUDY    36  33  89 SW18      30.04R WCI  26
SOUTH HAVEN    CLOUDY    34  32  93 SW10      30.08S WCI  26
$$
MIZ016>042-190200-
NORTHERN LOWER MICHIGAN

CITY           SKY/WX    TMP DP  RH WIND       PRES   REMARKS
ALPENA         CLEAR     37  31  78 W8        29.90R WCI  31
BEAVER ISLAND  CLOUDY    36  34  94 SW14G21   29.89R WCI  27
BELLAIRE       MOCLDY    35  32  89 S6        29.93S WCI  30
CADILLAC       CLOUDY    32  31  97 SW13G23   29.92S WCI  23
CHARLEVOIX     CLOUDY    35  33  94 S5        29.94R WCI  31
FRANKFORT      CLOUDY    36  34  94 S12G20    29.94S WCI  27
GAYLORD        CLEAR     35  29  78 SW13      29.87F WCI  26
GRAYLING       PTCLDY    34  32  92 SW6       29.92R WCI  29
HARBOR SPRINGS CLOUDY    35  33  93 SW8       29.91R WCI  28
HOUGHTON LAKE  CLOUDY    34  31  88 SW10      29.93S WCI  26
MANISTEE       CLOUDY    34  32  92 S9        29.97R WCI  27
OSCODA         CLOUDY    37  34  89 SW15G22   29.92S WCI  28
PELLSTON       CLOUDY    37  31  78 SW7       29.90R WCI  32
ROGERS CITY    CLEAR     32  30  92 CALM      29.90S
TRAVERSE CITY  CLOUDY    36  31  82 VRB3      29.92R
$$
MIZ007>008-015-190200-
EASTERN UPPER MICHIGAN

CITY           SKY/WX    TMP DP  RH WIND       PRES   REMARKS
KINROSS        CLOUDY    34  32  92 W9        29.89  WCI  27
MACKINAC ISLAN CLOUDY    34  34 100 W13G21    29.90R WCI  25
NEWBERRY       CLOUDY    33  32  98 SW9       29.87R WCI  25
S. S. MARIE    CLOUDY    35  31  85 W9        29.88R WCI  28
MUNISING         N/A     34  31  88 S10       29.83S WCI  26
$$
MIZ004>006-011>014-085-190200-
CENTRAL UPPER MICHIGAN

CITY           SKY/WX    TMP DP  RH WIND       PRES   REMARKS
MANISTIQUE     CLOUDY    32  32 100 SW6       29.86S WCI  26
ESCANABA       CLOUDY    31  31 100 S7        29.87R WCI  24
SAWYER-GWINN   CLEAR     34  30  86 CALM      29.82R
$$
MIZ001>003-009>011-084-190200-
WESTERN UPPER MICHIGAN

CITY           SKY/WX    TMP DP  RH WIND       PRES   REMARKS
IRON MOUNTAIN  CLOUDY    37  27  67 CALM      29.83R
HOUGHTON       CLOUDY    30  26  85 W3        29.80R
COPPER HARBOR    N/A     32  28  85 W5        29.82R WCI  27
IRONWOOD       CLOUDY    38  27  64 SW8       29.82R WCI  32
$$

ABBREVIATIONS USED IN REMARKS
   TC - TEMPERATURE IN CELSIUS
  WCI - WIND CHILL INDEX
   HX - HEAT INDEX
  VSB - VISIBILITY





USA.gov is the U.S. government's official web portal to all federal, state and local government web resources and services.